Tracking 19145 objects as of 25-Apr-2018
HD Live streaming from Space Station
objects crossing your sky now

FENGYUN 1C DEB

Track FENGYUN 1C DEB now!
10-day predictions


NORAD ID: 37903
Int'l Code: 1999-025ENC
Perigee: 702.1 km
Apogee: 1,199.8 km
Inclination: 98.2 °
Period: 103.9 minutes
Semi major axis: 7321 km
RCS: 0.0009 m2 (small)
Launch date: May 10, 1999
Source: People's Republic of China (PRC)
Launch site: Taiyaun Space Center, China (TSC)

Note: This is SATELLITE DEBRIS
aabbcc
Your satellite tracking list
Your tracking list is empty




NASA's NSSDC Master Catalog

Two Line Element Set (TLE):
1 37903U 99025ENC 18114.25504775  .00001971  00000-0  11167-2 0  9993
2 37903  98.1744 293.3243 0339845 215.6419 142.1617 13.85681550522275
Source of the keplerian elements: AFSPC